Oskaloosa, IA

2:53 PM CDT on September 21, 2017 (GMT -0500)
Oskaloosa Municipal

Weather History for KOOA - October, 2013

Change the Weather History Date:

Monday, October 28, 2013

  Actual Average (KOTM) Record (KOTM)
Temperature  
Mean Temperature 44 °F -  
Max Temperature 58 °F 58 °F 84 °F (1927)
Min Temperature 31 °F 39 °F 12 °F (1925)
Degree Days  
Heating Degree Days 20    
Moisture  
Dew Point 30 °F    
Average Humidity 63    
Maximum Humidity 82    
Minimum Humidity 36    
Precipitation  
Precipitation 0.00 in - - ()
Sea Level Pressure  
Sea Level Pressure 30.17 in    
Wind  
Wind Speed 7 mph (ENE)    
Max Wind Speed 21 mph    
Max Gust Speed 26 mph    
Visibility 10 miles    
Events      
Averages and records for this station are not official NWS values.
T = Trace of Precipitation, MM = Missing Value Source: NWS Daily Summary

Daily Weather History Graph

Daily Weather History Graph

Search for Another Location

Airport or City:

Trip Planner

Search our weather history database for the weather conditions in past years. The results will help you decide how hot, cold, wet, or windy it might be!

Date:

Astronomy

Oct. 28, 2013 Rise Set
Actual Time 7:36 AM CDT 6:10 PM CDT
Civil Twilight 7:08 AM CDT 6:38 PM CDT
Nautical Twilight 6:35 AM CDT 7:10 PM CDT
Astronomical Twilight 6:03 AM CDT 7:42 PM CDT
Moon 1:26 AM CDT (10/28) 2:55 PM CDT (10/28)
Length of Visible Light 11h 30m
Length of Day
10h 33m
Waning Crescent, 34% of the Moon is Illuminated
Oct 28
Waning Crescent
Nov 3
New
Nov 9
First Quarter
Nov 17
Full
Nov 25
Last Quarter

Hourly Weather History & Observations

Time (CDT) Temp. Windchill Dew Point Humidity Pressure Visibility Wind Dir Wind Speed Gust Speed Precip Events Conditions
12:15 AM 37.9 °F 32.7 °F 26.4 °F 63% 30.01 in 10.0 mi SSE 6.9 mph - N/A   Clear
12:35 AM 39.0 °F 34.0 °F 26.6 °F 61% 30.00 in 10.0 mi SSE 6.9 mph - N/A   Clear
12:55 AM 38.7 °F 36.3 °F 26.4 °F 61% 30.01 in 10.0 mi SE 3.5 mph - N/A   Clear
1:15 AM 35.8 °F 31.9 °F 26.6 °F 69% 30.02 in 10.0 mi SE 4.6 mph - N/A   Clear
1:35 AM 36.5 °F 33.9 °F 26.4 °F 67% 30.02 in 10.0 mi SE 3.5 mph - N/A   Clear
1:55 AM 36.7 °F - 26.6 °F 67% 30.03 in 10.0 mi Calm Calm - N/A   Clear
2:15 AM 36.7 °F - 26.6 °F 67% 30.03 in 10.0 mi Calm Calm - N/A   Clear
2:35 AM 34.3 °F - 26.1 °F 72% 30.04 in 10.0 mi Calm Calm - N/A   Clear
2:55 AM 34.2 °F - 26.2 °F 73% 30.04 in 10.0 mi Calm Calm - N/A   Clear
3:15 AM 35.6 °F - 26.6 °F 70% 30.05 in 10.0 mi Calm Calm - N/A   Clear
3:35 AM 35.6 °F - 26.4 °F 69% 30.05 in 10.0 mi Calm Calm - N/A   Clear
3:55 AM 32.4 °F 26.9 °F 26.1 °F 78% 30.05 in 10.0 mi South 5.8 mph - N/A   Clear
4:15 AM 32.0 °F 26.4 °F 26.1 °F 79% 30.05 in 10.0 mi SSE 5.8 mph - N/A   Clear
4:35 AM 32.0 °F 26.4 °F 26.1 °F 79% 30.05 in 10.0 mi SSE 5.8 mph - N/A   Clear
4:55 AM 32.0 °F 26.4 °F 26.4 °F 80% 30.05 in 10.0 mi SSE 5.8 mph - N/A   Clear
5:15 AM 32.0 °F 24.8 °F 26.2 °F 79% 30.06 in 10.0 mi South 8.1 mph - N/A   Clear
5:35 AM 32.0 °F 27.5 °F 26.4 °F 80% 30.07 in 10.0 mi South 4.6 mph - N/A   Clear
5:55 AM 32.2 °F - 26.6 °F 80% 30.07 in 10.0 mi Calm Calm - N/A   Clear
6:15 AM 32.7 °F - 26.4 °F 78% 30.09 in 10.0 mi Calm Calm - N/A   Clear
6:35 AM 32.0 °F 24.2 °F 27.1 °F 82% 30.10 in 10.0 mi NNE 9.2 mph 17.3 mph N/A   Clear
6:55 AM 32.0 °F 25.6 °F 27.0 °F 82% 30.11 in 10.0 mi NNE 6.9 mph - N/A   Clear
7:15 AM 31.6 °F 25.1 °F 26.6 °F 82% 30.12 in 10.0 mi NE 6.9 mph - N/A   Clear
7:35 AM 31.6 °F 26.0 °F 26.8 °F 82% 30.12 in 10.0 mi ENE 5.8 mph - N/A   Clear
7:55 AM 31.8 °F 25.4 °F 27.0 °F 82% 30.13 in 10.0 mi ENE 6.9 mph - N/A   Clear
8:15 AM 33.3 °F 26.4 °F 28.0 °F 81% 30.15 in 10.0 mi NNE 8.1 mph - N/A   Clear
8:35 AM 34.0 °F 27.2 °F 28.4 °F 80% 30.17 in 10.0 mi NE 8.1 mph - N/A   Clear
8:55 AM 35.6 °F 28.6 °F 28.6 °F 76% 30.18 in 10.0 mi NE 9.2 mph - N/A   Clear
9:15 AM 37.0 °F 31.0 °F 29.1 °F 73% 30.19 in 10.0 mi NE 8.1 mph - N/A   Clear
9:35 AM 37.6 °F 31.6 °F 29.7 °F 73% 30.20 in 10.0 mi NE 8.1 mph - N/A   Clear
9:55 AM 39.9 °F 33.9 °F 30.2 °F 68% 30.21 in 10.0 mi NE 9.2 mph - N/A   Clear
10:15 AM 41.0 °F 34.7 °F 30.0 °F 65% 30.22 in 10.0 mi ENE 10.4 mph - N/A   Clear
10:35 AM 42.3 °F 36.8 °F 30.7 °F 64% 30.22 in 10.0 mi ENE 9.2 mph - N/A   Clear
10:55 AM 43.3 °F 38.1 °F 30.9 °F 62% 30.23 in 10.0 mi ENE 9.2 mph - N/A   Clear
11:15 AM 46.2 °F 40.5 °F 31.1 °F 56% 30.23 in 10.0 mi ENE 12.7 mph - N/A   Clear
11:35 AM 47.5 °F - 31.1 °F 53% 30.22 in 10.0 mi ENE 11.5 mph - N/A   Clear
11:55 AM 49.3 °F - 31.3 °F 50% 30.23 in 10.0 mi East 9.2 mph - N/A   Clear
12:15 PM 51.1 °F - 31.3 °F 47% 30.22 in 10.0 mi East 9.2 mph - N/A   Clear
12:35 PM 52.5 °F - 31.6 °F 45% 30.22 in 10.0 mi East 8.1 mph - N/A   Clear
12:55 PM 53.2 °F - 31.1 °F 43% 30.22 in 10.0 mi East 9.2 mph - N/A   Clear
1:15 PM 53.6 °F - 31.6 °F 43% 30.21 in 10.0 mi East 4.6 mph - N/A   Clear
1:35 PM 54.7 °F - 31.5 °F 41% 30.21 in 10.0 mi East 4.6 mph - N/A   Clear
1:55 PM 55.9 °F - 31.5 °F 39% 30.20 in 10.0 mi East 6.9 mph - N/A   Clear
2:15 PM 55.8 °F - 31.5 °F 40% 30.20 in 10.0 mi East 4.6 mph - N/A   Clear
2:35 PM 57.2 °F - 31.6 °F 38% 30.20 in 10.0 mi East 4.6 mph - N/A   Clear
2:55 PM 57.0 °F - 31.5 °F 38% 30.19 in 7.0 mi ENE 6.9 mph - N/A   Clear
3:15 PM 57.4 °F - 31.3 °F 37% 30.19 in 10.0 mi ENE 8.1 mph - N/A   Clear
3:35 PM 57.4 °F - 31.1 °F 37% 30.19 in 10.0 mi ENE 8.1 mph - N/A   Clear
3:55 PM 57.4 °F - 31.3 °F 37% 30.19 in 10.0 mi East 6.9 mph - N/A   Clear
4:15 PM 58.1 °F - 31.5 °F 36% 30.20 in 10.0 mi East 8.1 mph - N/A   Clear
4:35 PM 56.7 °F - 31.3 °F 38% 30.20 in 10.0 mi ENE 5.8 mph - N/A   Clear
4:55 PM 56.3 °F - 31.8 °F 39% 30.20 in 10.0 mi NE 5.8 mph - N/A   Clear
5:15 PM 55.9 °F - 32.0 °F 40% 30.20 in 10.0 mi NE 4.6 mph - N/A   Clear
5:35 PM 55.0 °F - 32.4 °F 42% 30.20 in 7.0 mi NE 6.9 mph - N/A   Clear
5:55 PM 53.2 °F - 32.9 °F 46% 30.21 in 10.0 mi NE 6.9 mph - N/A   Clear
6:15 PM 51.8 °F - 33.3 °F 49% 30.22 in 10.0 mi NNE 8.1 mph - N/A   Clear
6:35 PM 51.1 °F - 33.4 °F 51% 30.22 in 10.0 mi NE 8.1 mph - N/A   Clear
6:55 PM 50.7 °F - 33.4 °F 52% 30.22 in 10.0 mi NE 9.2 mph - N/A   Clear
7:15 PM 49.8 °F - 34.9 °F 56% 30.23 in 10.0 mi NE 8.1 mph - N/A   Clear
7:35 PM 49.3 °F - 36.7 °F 62% 30.24 in 10.0 mi NE 11.5 mph - N/A   Clear
7:55 PM 49.1 °F - 37.6 °F 64% 30.24 in 10.0 mi NE 15.0 mph 18.4 mph N/A   Clear
8:15 PM 47.3 °F - 36.0 °F 65% 30.25 in 10.0 mi ENE 17.3 mph 23.0 mph N/A   Clear
8:35 PM 46.4 °F 39.5 °F 35.6 °F 66% 30.25 in 10.0 mi ENE 17.3 mph 25.3 mph N/A   Clear
8:55 PM 45.0 °F 36.9 °F 34.9 °F 68% 30.25 in 10.0 mi ENE 20.7 mph 26.5 mph N/A   Clear
9:15 PM 44.1 °F 36.5 °F 34.5 °F 69% 30.25 in 10.0 mi ENE 17.3 mph 21.9 mph N/A   Clear
9:35 PM 43.7 °F 36.0 °F 34.3 °F 70% 30.27 in 10.0 mi ENE 17.3 mph 21.9 mph N/A   Clear
9:55 PM 43.0 °F 35.4 °F 34.2 °F 71% 30.26 in 10.0 mi ENE 16.1 mph 23.0 mph N/A   Clear
10:15 PM 42.4 °F 35.3 °F 34.2 °F 72% 30.27 in 10.0 mi East 13.8 mph 19.6 mph N/A   Clear
10:35 PM 42.3 °F 35.1 °F 34.2 °F 73% 30.27 in 10.0 mi East 13.8 mph 20.7 mph N/A   Clear
10:55 PM 42.1 °F 34.2 °F 34.2 °F 74% 30.27 in 10.0 mi East 16.1 mph 20.7 mph N/A   Clear
11:15 PM 41.7 °F 34.4 °F 34.2 °F 75% 30.27 in 10.0 mi East 13.8 mph 19.6 mph N/A   Clear
11:35 PM 41.0 °F 33.9 °F 34.2 °F 77% 30.27 in 10.0 mi East 12.7 mph 17.3 mph N/A   Clear
11:55 PM 40.5 °F 33.6 °F 34.3 °F 79% 30.27 in 10.0 mi East 11.5 mph 17.3 mph N/A   Clear